CFG3AH EDDH-EDDF

Flight info

Callsign CFG3AH
Flight time N/A
Altitude 30000
Route AMLUH2G/33 AMLUH M852 DENIX DCT RIMET/N0429F310 T157 KOKEB/N0384F230 T157 KERAX KERAX5D
Aircraft A320/M-SDE3FGHIJ1LORVWXYZ/SB1

Departure

Time 2026-04-30 17:41
Airport Hamburg Helmut Schmidt Airport (EDDH)

Arrival

Time N/A
Airport Frankfurt Main Airport (EDDF)
Time Latitude Longitude Altitude Speed Heading
2026-04-30 17:39 53.62673 10.23218 15079 ft 351 kts 161°
2026-04-30 17:41 53.41902 10.25316 21041 ft 398 kts 178°
2026-04-30 17:42 53.36304 10.25209 22351 ft 407 kts 178°
2026-04-30 17:42 53.27674 10.25082 24219 ft 420 kts 178°
2026-04-30 17:43 53.21784 10.24982 25298 ft 426 kts 178°
2026-04-30 17:44 53.12768 10.24825 26812 ft 438 kts 178°
2026-04-30 17:44 53.03515 10.24674 28324 ft 447 kts 179°
2026-04-30 17:46 52.87689 10.24406 30420 ft 458 kts 179°
2026-04-30 17:47 52.75448 10.24205 30432 ft 435 kts 179°
2026-04-30 17:48 52.56019 10.23881 30438 ft 434 kts 178°
2026-04-30 17:50 52.31883 10.23495 30431 ft 433 kts 178°
2026-04-30 17:52 52.13844 10.23201 30438 ft 432 kts 178°
2026-04-30 17:54 51.86791 10.22777 30427 ft 431 kts 178°
2026-04-30 17:55 51.75094 10.22583 29225 ft 409 kts 177°
2026-04-30 17:56 51.63649 10.22415 27944 ft 413 kts 177°
2026-04-30 17:57 51.55001 10.22280 27017 ft 415 kts 176°
2026-04-30 17:58 51.46319 10.22145 26114 ft 416 kts 176°
2026-04-30 17:59 51.34735 10.21970 25426 ft 415 kts 176°
2026-04-30 18:00 51.23300 10.21736 24656 ft 411 kts 176°
2026-04-30 18:00 51.14766 10.21552 24001 ft 406 kts 176°
2026-04-30 18:01 51.09139 10.21456 23550 ft 402 kts 176°
2026-04-30 18:02 51.00772 10.21312 22911 ft 399 kts 176°
2026-04-30 18:02 50.92521 10.21155 22280 ft 395 kts 176°
2026-04-30 18:03 50.84323 10.20635 21622 ft 396 kts 189°
2026-04-30 18:04 50.77508 10.13497 20937 ft 403 kts 235°
2026-04-30 18:05 50.72392 9.97867 20082 ft 398 kts 244°
2026-04-30 18:06 50.67408 9.82391 19206 ft 392 kts 243°
2026-04-30 18:07 50.61681 9.68154 17951 ft 381 kts 218°
2026-04-30 18:08 50.54756 9.62636 16786 ft 369 kts 198°
2026-04-30 18:09 50.47261 9.54391 15415 ft 365 kts 237°
2026-04-30 18:10 50.43991 9.39565 13960 ft 356 kts 253°
2026-04-30 18:11 50.40421 9.25373 12389 ft 346 kts 228°
2026-04-30 18:11 50.34802 9.18737 11379 ft 334 kts 208°
2026-04-30 18:12 50.28940 9.12786 11380 ft 338 kts 218°
2026-04-30 18:13 50.26135 9.06876 11365 ft 344 kts 244°
2026-04-30 18:13 50.24386 8.99444 11309 ft 344 kts 249°
2026-04-30 18:14 50.22767 8.92415 11346 ft 343 kts 248°
2026-04-30 18:15 50.20564 8.83100 10697 ft 318 kts 248°
2026-04-30 18:15 50.18309 8.73630 9648 ft 308 kts 247°
2026-04-30 18:16 50.16860 8.67526 9251 ft 288 kts 247°
2026-04-30 18:16 50.15519 8.61876 8888 ft 270 kts 247°
2026-04-30 18:17 50.14865 8.59140 8579 ft 267 kts 247°
2026-04-30 18:17 50.14217 8.56434 8367 ft 265 kts 247°
2026-04-30 18:17 50.12923 8.51042 8353 ft 266 kts 246°
2026-04-30 18:18 50.12270 8.48337 8356 ft 266 kts 246°
2026-04-30 18:18 50.11618 8.45637 8354 ft 267 kts 246°
2026-04-30 18:18 50.11074 8.43377 8364 ft 266 kts 246°